This demonstration page uses our WeatherBlox Daily Observations layout. Learn more.

Left ArrowRight Arrow

Hourly Observations for November 23, 2015

Temp ( °F °C ) Dew Point ( °F °C ) Humidity (%) Winds ( mph kmh ) Pressure ( in mb ) Visibility ( mi km ) Precip ( " mm )
12:53 am 00:53 Clear 43 6.1 38 3.3 82 82 Calm 29.91 1013 10 16 0.00 0.00
1:53 am 01:53 Clear 43 6.1 37 2.8 80 80 Calm 29.91 1013 10 16 0.00 0.00
2:53 am 02:53 Clear 41 5 37 2.8 86 86 Calm 29.91 1013 8 13 0.00 0.00
3:53 am 03:53 Clear 41 5 36 2.2 82 82 Calm 29.89 1012 10 16 0.00 0.00
4:53 am 04:53 Clear 40 4.4 35 1.7 83 83 Calm 29.90 1012 10 16 0.00 0.00
5:53 am 05:53 Clear 39 3.9 35 1.7 86 86 Calm 29.89 1012 10 16 0.00 0.00
6:53 am 06:53 Clear 39 3.9 34 1.1 82 82 Calm 29.90 1013 9 14 0.00 0.00
7:53 am 07:53 Sunny 41 5 36 2.2 82 82 Calm 29.91 1013 10 16 0.00 0.00
8:53 am 08:53 Sunny 46 7.8 40 4.4 79 79 Calm 29.92 1013 10 16 0.00 0.00
9:53 am 09:53 Sunny 54 12.2 43 6.1 67 67 Calm 29.91 1013 10 16 0.00 0.00
10:53 am 10:53 Sunny 60 15.6 43 6.1 53 53 Calm 29.90 1012 10 16 0.00 0.00
11:53 am 11:53 Sunny 63 17.2 43 6.1 48 48 SSW 3 6 29.86 1011 10 16 0.00 0.00
12:53 pm 12:53 Sunny 66 18.9 41 5 40 40 SSE 5 7 29.84 1011 10 16 0.00 0.00
1:53 pm 13:53 Sunny 68 20 41 5 38 38 S 5 7 29.82 1010 10 16 0.00 0.00
2:53 pm 14:53 Sunny 69 20.6 42 5.6 38 38 S 7 11 29.82 1010 10 16 0.00 0.00
3:53 pm 15:53 Sunny 67 19.4 41 5 39 39 S 7 11 29.83 1010 10 16 0.00 0.00
4:53 pm 16:53 Clear 61 16.1 43 6.1 52 52 SE 5 7 29.83 1010 10 16 0.00 0.00
5:53 pm 17:53 Clear 57 13.9 43 6.1 60 60 SE 7 11 29.83 1010 10 16 0.00 0.00
6:53 pm 18:53 Clear 56 13.3 44 6.7 65 65 SSE 6 9 29.83 1010 10 16 0.00 0.00
7:53 pm 19:53 Clear 54 12.2 43 6.1 67 67 Calm 29.82 1010 10 16 0.00 0.00
8:53 pm 20:53 Clear 53 11.7 43 6.1 69 69 Calm 29.83 1010 10 16 0.00 0.00
9:53 pm 21:53 Clear 53 11.7 44 6.7 72 72 W 6 9 29.83 1010 10 16 0.00 0.00
10:53 pm 22:53 Mostly Clear 54 12.2 45 7.2 72 72 WNW 7 11 29.81 1010 9 14 0.00 0.00
11:53 pm 23:53 Clear 54 12.2 46 7.8 75 75 WSW 5 7 29.81 1009 7 11 0.00 0.00

Powered by AerisWeather